Location: Archamps
(46.1365°N, 6.1329°E)
Time: 06:44:48
(UTC+00:00)

SL-16 R/B - Pass Details

Date: 28 January 2023
Orbit: 842 x 846 km, 71.0° (Epoch: 21 March)

Event Time Altitude Azimuth Distance (km) Brightness Sun altitude
Rises 19:56:42 0° 232° (SW) 3,390 5.8 -35.0°
Reaches altitude 10° 19:59:20 10° 241° (WSW) 2,459 5.1 -35.5°
Enters shadow 20:04:05 35° 298° (WNW) 1,335 3.6 -36.3°
